This demonstration page uses our WeatherBlox Daily Observations layout. Learn more.

39.92423, -83.80882

Hourly Observations for July 28, 2018

Temp ( °F °C ) Dew Point ( °F °C ) Humidity (%) Winds ( mph kmh ) Pressure ( in mb ) Visibility ( mi km ) Precip ( " mm )
12:56 am 00:56 Clear 62 16.7 59 15 90 90 NW 6 9 30.09 1019 10 16.0934 0 0
1:56 am 01:56 Clear 62 16.7 59 15 90 90 NW 6 9 30.09 1019 10 16.0934 0 0
2:56 am 02:56 Clear 61 16.1 57 13.9 87 87 Calm 30.08 1019 10 16.0934 0 0
3:56 am 03:56 Clear 59 15 58 14.4 96 96 Calm 30.09 1019 10 16.0934 0 0
4:56 am 04:56 Clear 57 13.9 57 13.9 100 100 Calm 30.09 1019 10 16.0934 0 0
5:56 am 05:56 Clear 55 12.8 55 12.8 100 100 NW 3 6 30.11 1020 10 16.0934 0 0
6:56 am 06:56 Sunny 57 13.9 55 12.8 93 93 Calm 30.11 1020 10 16.0934 0 0
7:56 am 07:56 Sunny 62 16.7 56 13.3 80 80 Calm 30.12 1020 10 16.0934 0 0
8:56 am 08:56 Sunny 66 18.9 56 13.3 70 70 N 3 6 30.14 1021 10 16.0934 0 0
9:56 am 09:56 Sunny 70 21.1 57 13.9 64 64 VRB 5 7 30.15 1021 10 16.0934 0 0
10:56 am 10:56 Sunny 72 22.2 57 13.9 59 59 N 6 9 30.15 1021 10 16.0934 0 0
11:56 am 11:56 Sunny 74 23.3 57 13.9 56 56 N 7 11 30.16 1021 10 16.0934 0 0
12:56 pm 12:56 Sunny 76 24.4 57 13.9 52 52 VRB 3 6 30.14 1021 10 16.0934 0 0
1:56 pm 13:56 Sunny 77 25 56 13.3 48 48 NW 8 13 30.14 1021 10 16.0934 0 0
2:56 pm 14:56 Sunny 77 25 57 13.9 50 50 VRB 7 11 30.13 1020 10 16.0934 0 0
3:56 pm 15:56 Sunny 78 25.6 59 15 52 52 VRB 5 7 30.12 1020 10 16.0934 0 0
4:56 pm 16:56 Sunny 77 25 57 13.9 50 50 SW 6 9 30.12 1020 10 16.0934 0 0
5:56 pm 17:56 Sunny 76 24.4 59 15 56 56 SW 3 6 30.12 1020 10 16.0934 0 0
6:56 pm 18:56 Sunny 75 23.9 61 16.1 62 62 SSW 3 6 30.11 1020 10 16.0934 0 0
8:56 pm 20:56 Clear 69 20.6 61 16.1 76 76 NW 3 6 30.11 1020 10 16.0934 0 0
9:56 pm 21:56 Clear 67 19.4 60 15.6 79 79 NNW 3 6 30.12 1020 10 16.0934 0 0
10:56 pm 22:56 Clear 63 17.2 60 15.6 90 90 Calm 30.13 1020 10 16.0934 0 0
11:56 pm 23:56 Clear 64 17.8 60 15.6 87 87 Calm 30.14 1021 10 16.0934 0 0

Powered by AerisWeather